MST,Max TemperatureF,Mean TemperatureF,Min TemperatureF,Max Dew PointF,MeanDew PointF,Min DewpointF,Max Humidity, Mean Humidity, Min Humidity, Max Sea Level PressureIn, Mean Sea Level PressureIn, Min Sea Level PressureIn, Max VisibilityMiles, Mean VisibilityMiles, Min VisibilityMiles, Max Wind SpeedMPH, Mean Wind SpeedMPH, Max Gust SpeedMPH,PrecipitationIn, CloudCover, Events, WindDirDegrees
2012-11-1,62,48,33,40,33,27,85,55,25,30.00,29.85,29.76,10,10,10,26,9,38,0.02,5,Rain,191
2012-11-2,55,42,28,36,33,28,92,67,41,30.19,30.11,29.98,10,10,10,10,4,13,0.00,6,,166
2012-11-3,57,40,22,33,28,20,92,62,32,30.27,30.19,30.13,10,10,10,9,2,9,0.00,3,,169
2012-11-4,61,51,40,37,34,30,70,53,36,30.34,30.26,30.14,10,10,10,18,6,24,0.00,6,,322
2012-11-5,67,52,37,39,34,30,85,57,28,30.31,30.22,30.13,10,10,10,22,7,31,0.00,1,,217
2012-11-6,67,51,34,35,31,29,82,53,24,30.27,30.15,29.97,10,10,10,13,4,14,0.00,0,,143
2012-11-7,68,50,32,41,30,27,77,49,21,29.97,29.86,29.71,10,10,10,28,9,36,0.01,3,,235
2012-11-8,39,34,28,31,28,25,100,80,59,29.94,29.81,29.70,10,4,0,13,7,16,0.28,8,Fog-Snow,263
2012-11-9,29,22,14,27,20,10,100,87,73,29.96,29.77,29.67,10,3,0,16,5,18,0.38,8,Fog-Snow,237
2012-11-10,14,2,-10,10,6,-12,92,81,70,30.30,29.97,29.79,10,4,1,13,7,14,T,7,Snow,214
2012-11-11,24,10,-4,11,2,-6,87,73,59,30.52,30.38,30.25,10,10,6,7,2,18,0.00,5,,152
2012-11-12,28,12,-4,21,10,-5,87,75,63,30.53,30.45,30.37,10,10,5,9,2,14,0.00,6,,175
2012-11-13,34,27,20,25,22,18,92,81,69,30.41,30.34,30.26,10,10,6,10,3,10,T,5,,145
2012-11-14,37,32,26,30,26,23,92,84,75,30.38,30.27,30.22,10,9,6,9,3,10,0.00,7,,172
2012-11-15,33,23,12,23,17,10,96,81,66,30.47,30.34,30.18,10,8,0,18,2,18,0.00,1,Fog,192
2012-11-16,35,24,12,28,20,9,92,82,72,30.21,30.15,29.99,10,9,5,7,3,32,0.00,4,,122
2012-11-17,39,27,14,29,22,13,92,81,70,30.16,30.04,29.86,10,7,0,6,2,6,0.00,1,Fog,169
2012-11-18,44,34,24,33,29,23,92,79,65,30.09,29.93,29.77,10,10,8,23,5,28,0.00,4,,164
2012-11-19,50,36,22,30,26,19,92,69,46,30.17,30.10,30.01,10,10,9,20,4,23,0.00,0,,145
2012-11-20,52,43,34,32,30,28,75,64,53,30.02,29.94,29.86,10,10,10,21,4,28,0.00,1,,85
2012-11-21,54,40,26,37,31,21,92,70,48,30.09,29.83,29.68,10,8,2,36,7,44,0.27,6,Rain-Snow,287
2012-11-22,39,29,19,21,17,13,81,61,40,30.59,30.40,30.09,10,10,7,20,8,24,T,2,Snow,254
2012-11-23,38,27,16,26,19,12,85,65,44,30.57,30.40,30.16,10,10,10,12,2,13,0.00,0,,153
2012-11-24,50,41,31,31,27,23,85,65,45,30.11,30.05,29.99,10,10,9,18,5,23,0.00,7,,12
2012-11-25,36,27,17,31,27,13,92,75,58,30.38,30.05,29.92,10,6,1,15,5,17,0.04,8,Snow,266
2012-11-26,30,20,10,17,12,7,88,71,53,30.45,30.38,30.30,10,10,10,10,4,17,0.00,0,,152
2012-11-27,37,26,14,23,17,10,81,67,52,30.37,30.28,30.14,10,10,10,8,2,18,0.00,0,,151
2012-11-28,45,32,19,27,23,18,88,67,45,30.22,30.09,29.94,10,10,7,8,1,14,0.00,1,,166
2012-11-29,51,42,32,35,30,25,96,71,45,30.02,29.94,29.87,10,10,10,13,5,16,T,4,Rain,132
2012-11-30,52,43,33,37,32,27,75,60,44,29.87,29.73,29.65,10,10,10,26,7,37,0.02,7,Rain,152